User: anonymous   Login
Location: Harbor Island
(32.3990°N, 80.4435°W)
Time: 02:42:23
(UTC-05:00)
Language:

Cosmos 1455 - Orbit

View from above orbital plane
View from above orbital plane
View from above satellite
View from above satellite

Ground track
Ground track

The orbit data is extracted from the following two-line orbital elements,

1 14032U 83037A   17057.80099099  .00001428  00000-0  70812-4 0  9992
2 14032  82.5176 196.2494 0016315 305.7072  54.2642 15.16830380844640
Epoch (UTC): 26 February 2017 19:13:25
Eccentricity: 0.0016315
inclination: 82.5176°
perigee height: 504 km
apogee height: 526 km
right ascension of ascending node: 196.2494°
argument of perigee: 305.7072°
revolutions per day: 15.16830380
mean anomaly at epoch: 54.2642°
orbit number at epoch: 84464

The dashed part of the orbit path shows where the satellite is in the earth's shadow,  

DLR